Location: ??????
(55.7522°N, 37.6156°E)
Time: 18:19:09
(UTC+00:00)

Terra - Pass Details

Date: 14 June 2025
Orbit: 689 x 692 km, 98.0° (Epoch: 13 July)

Event Time Altitude Azimuth Distance (km) Brightness Sun altitude
Rises 19:56:47 0° 225° (SW) 3,061 4.9 -8.5°
Reaches altitude 10° 20:00:43 10° 259° (WSW) 2,152 4.5 -8.7°
Maximum altitude 20:02:17 12° 278° (W) 2,054 4.6 -8.8°
Drops below altitude 10° 20:03:51 10° 298° (WNW) 2,158 5.1 -8.8°
Sets 20:07:49 0° 331° (NNW) 3,083 7.2 -9.0°
